KUIPER-00142

导读 | 豆包AI

KUIPER-00171是美国亚马逊公司柯伊伯计划(后更名为Amazon Leo)低轨卫星互联网星座的组网卫星,于2025年9月25日发射入轨,运行周期约92.4分钟。该星座旨在为全球网络未覆盖地区提供高速低延迟互联网接入,KUIPER-00171将同其他卫星共同构建覆盖全球的卫星通信网络,助力云服务与太空计算整合,推动商业航天发展。

基本信息
目录编号:
65784
目录名称:
KUIPER-00171
国际标识:
2025-217Y
轨道中心:
EARTH
卫星名称:
KUIPER-00171
卫星全名:
KUIPER-00142
卫星状态:
已陨落 最后检测时间 2026-02-08
发射日期:
2025-09-25 UTC
国别 :
美国 (US)
星等 :
--
轨道信息
数据来源 国际轨道数据
星历时间: 2026-02-08T09:42:48+0800
轨道信息已过期106天
半长轴: 6545.263km
偏心率: 0.0003086
轨道倾角: 51.830°
近地点辐角 288.751°
升交点赤经 118.666°
平近点角 71.318°
近地点: 165.106km
远地点: 169.146km
周期: 87.832分钟
每日圈数: 16.395028
详细信息
使用方式:
暂无